Location: Newark
(21.8258°S, 114.1586°E)
Time: 05:31:25
(UTC+00:00)

Hubble Space Telescope - Pass Details

Date: 14 December 2019
Orbit: 536 x 540 km, 28.5° (Epoch: 20 January)

Event Time Altitude Azimuth Distance (km) Brightness Sun altitude
Rises 14:10:19 0° 248° (WSW) 2,686 5.1 -35.3°
Reaches altitude 10° 14:12:36 10° 244° (WSW) 1,794 4.0 -35.6°
Enters shadow 14:12:43 11° 244° (WSW) 1,752 4.0 -35.6°
